TimeEDT,TemperatureF,Dew PointF,Humidity,Sea Level PressureIn,VisibilityMPH,Wind Direction,Wind SpeedMPH,Gust SpeedMPH,PrecipitationIn,Events,Conditions,WindDirDegrees,DateUTC
12:51 AM,57.0,55.9,96,29.91,4.0,Calm,Calm,-,N/A,,Clear,0,2012-10-06 04:51:00
1:32 AM,57.2,55.4,94,29.91,2.5,Calm,Calm,-,N/A,,Clear,0,2012-10-06 05:32:00
1:51 AM,55.9,54.0,93,29.91,1.0,Calm,Calm,-,N/A,,Clear,0,2012-10-06 05:51:00
2:18 AM,55.4,53.6,94,29.91,5.0,Calm,Calm,-,N/A,,Clear,0,2012-10-06 06:18:00
2:51 AM,55.0,55.0,100,29.90,5.0,Calm,Calm,-,N/A,,Clear,0,2012-10-06 06:51:00
2:57 AM,53.6,53.6,100,29.89,0.2,Calm,Calm,-,N/A,Fog,Fog,0,2012-10-06 06:57:00
3:13 AM,53.6,53.6,100,29.89,0.5,Calm,Calm,-,N/A,Fog,Fog,0,2012-10-06 07:13:00
3:31 AM,53.6,53.6,100,29.88,0.5,Calm,Calm,-,N/A,Fog,Fog,0,2012-10-06 07:31:00
3:51 AM,54.0,53.1,97,29.87,0.2,Calm,Calm,-,N/A,Fog,Fog,0,2012-10-06 07:51:00
4:23 AM,53.6,53.6,100,29.87,0.8,Calm,Calm,-,N/A,,Mist,0,2012-10-06 08:23:00
4:35 AM,53.6,53.6,100,29.87,0.8,Calm,Calm,-,N/A,,Mist,0,2012-10-06 08:35:00
4:51 AM,53.1,53.1,100,29.86,2.5,Calm,Calm,-,N/A,,Scattered Clouds,0,2012-10-06 08:51:00
5:08 AM,53.6,51.8,94,29.86,3.0,Calm,Calm,-,N/A,,Clear,0,2012-10-06 09:08:00
5:34 AM,53.6,53.6,100,29.86,2.0,NNE,3.5,-,N/A,,Clear,30,2012-10-06 09:34:00
5:51 AM,53.1,52.0,96,29.85,3.0,Calm,Calm,-,N/A,,Clear,0,2012-10-06 09:51:00
6:03 AM,53.6,53.6,100,29.85,2.0,Calm,Calm,-,N/A,,Clear,0,2012-10-06 10:03:00
6:23 AM,55.4,53.6,94,29.85,4.0,Calm,Calm,-,N/A,,Clear,0,2012-10-06 10:23:00
6:51 AM,54.0,53.1,97,29.84,2.5,Calm,Calm,-,N/A,,Partly Cloudy,0,2012-10-06 10:51:00
7:20 AM,53.6,51.8,94,29.84,0.8,North,3.5,-,N/A,,Clear,350,2012-10-06 11:20:00
7:35 AM,53.6,53.6,100,29.84,1.2,Calm,Calm,-,N/A,,Clear,0,2012-10-06 11:35:00
7:51 AM,54.0,53.1,97,29.84,1.2,Calm,Calm,-,N/A,,Clear,0,2012-10-06 11:51:00
8:33 AM,57.2,55.4,94,29.84,4.0,Calm,Calm,-,N/A,,Clear,0,2012-10-06 12:33:00
8:51 AM,60.1,57.9,93,29.83,4.0,Calm,Calm,-,N/A,,Clear,0,2012-10-06 12:51:00
9:51 AM,64.9,59.0,81,29.81,7.0,SW,3.5,-,N/A,,Partly Cloudy,220,2012-10-06 13:51:00
10:51 AM,66.0,60.1,81,29.83,6.0,WNW,3.5,-,N/A,,Haze,300,2012-10-06 14:51:00
11:51 AM,66.9,59.0,76,29.82,10.0,WSW,9.2,-,N/A,,Haze,240,2012-10-06 15:51:00
12:51 PM,66.0,57.9,75,29.83,10.0,West,9.2,-,N/A,,Haze,260,2012-10-06 16:51:00
1:51 PM,68.0,59.0,73,29.82,10.0,West,11.5,-,N/A,,Haze,270,2012-10-06 17:51:00
2:17 PM,64.4,55.4,73,29.83,10.0,WNW,13.8,23.0,N/A,,Overcast,290,2012-10-06 18:17:00
2:51 PM,64.0,54.0,70,29.85,10.0,West,12.7,19.6,N/A,,Overcast,280,2012-10-06 18:51:00
3:51 PM,66.0,51.1,59,29.87,10.0,West,13.8,21.9,N/A,,Scattered Clouds,280,2012-10-06 19:51:00
4:51 PM,63.0,48.9,60,29.89,10.0,WNW,12.7,20.7,N/A,,Mostly Cloudy,290,2012-10-06 20:51:00
5:51 PM,60.1,46.9,62,29.91,10.0,NW,8.1,-,N/A,,Mostly Cloudy,310,2012-10-06 21:51:00
6:51 PM,57.0,42.1,57,29.95,10.0,WNW,6.9,-,N/A,,Clear,290,2012-10-06 22:51:00
7:51 PM,53.1,42.1,66,29.97,10.0,Calm,Calm,-,N/A,,Clear,0,2012-10-06 23:51:00
8:51 PM,50.0,42.1,74,30.00,10.0,Calm,Calm,-,N/A,,Clear,0,2012-10-07 00:51:00
9:51 PM,50.0,43.0,77,30.01,10.0,WSW,3.5,-,N/A,,Clear,240,2012-10-07 01:51:00
10:51 PM,48.9,42.1,77,30.03,10.0,WSW,4.6,-,N/A,,Clear,250,2012-10-07 02:51:00
11:51 PM,46.9,43.0,86,30.04,10.0,NW,9.2,-,N/A,,Clear,320,2012-10-07 03:51:00